FDX1441 KTYS-KRDU

Flight info

Callsign FDX1441
Flight time 1h 1m
Altitude 27000
Route KPASS ALDAN4
Aircraft MD11/H-VGDW/C

Departure

Time 2026-05-07 00:41
Airport McGhee Tyson Airport (KTYS)

Arrival

Time 2026-05-07 01:43
Airport Raleigh-Durham International Airport (KRDU)
Time Latitude Longitude Altitude Speed Heading
2026-05-07 00:24 35.80084 -83.99962 948 ft 0 kts 43°
2026-05-07 00:34 35.80094 -83.99950 988 ft 4 kts 43°
2026-05-07 00:35 35.80118 -83.99921 984 ft 6 kts 45°
2026-05-07 00:35 35.80143 -83.99901 985 ft 5 kts 22°
2026-05-07 00:35 35.80166 -83.99906 984 ft 4 kts 341°
2026-05-07 00:35 35.80213 -83.99926 981 ft 5 kts
2026-05-07 00:36 35.80238 -83.99917 983 ft 5 kts 20°
2026-05-07 00:36 35.80268 -83.99890 982 ft 5 kts 38°
2026-05-07 00:36 35.80294 -83.99860 985 ft 6 kts 44°
2026-05-07 00:36 35.80331 -83.99816 985 ft 9 kts 44°
2026-05-07 00:37 35.80392 -83.99742 979 ft 15 kts 45°
2026-05-07 00:37 35.80485 -83.99641 981 ft 19 kts 39°
2026-05-07 00:37 35.80590 -83.99523 983 ft 22 kts 43°
2026-05-07 00:37 35.80703 -83.99387 983 ft 23 kts 44°
2026-05-07 00:38 35.80822 -83.99242 983 ft 25 kts 45°
2026-05-07 00:38 35.80949 -83.99090 984 ft 26 kts 46°
2026-05-07 00:38 35.81081 -83.98924 980 ft 28 kts 45°
2026-05-07 00:38 35.81225 -83.98749 982 ft 30 kts 45°
2026-05-07 00:39 35.81377 -83.98564 983 ft 31 kts 45°
2026-05-07 00:39 35.81509 -83.98403 982 ft 21 kts 43°
2026-05-07 00:39 35.81586 -83.98314 976 ft 13 kts 42°
2026-05-07 00:39 35.81674 -83.98242 982 ft 16 kts 24°
2026-05-07 00:40 35.81721 -83.98238 966 ft 4 kts 325°
2026-05-07 00:40 35.81743 -83.98273 967 ft 2 kts 282°
2026-05-07 00:40 35.81736 -83.98287 966 ft 3 kts 237°
2026-05-07 00:40 35.81733 -83.98291 966 ft 1 kts 232°
2026-05-07 00:41 35.81642 -83.98412 966 ft 54 kts 224°
2026-05-07 00:41 35.81157 -83.98997 967 ft 136 kts 223°
2026-05-07 00:41 35.80413 -83.99905 1559 ft 155 kts 224°
2026-05-07 00:41 35.79601 -84.00844 2497 ft 162 kts 224°
2026-05-07 00:42 35.78731 -84.01821 3224 ft 186 kts 225°
2026-05-07 00:42 35.77704 -84.03007 3539 ft 222 kts 225°
2026-05-07 00:42 35.76567 -84.04488 3828 ft 246 kts 238°
2026-05-07 00:42 35.76034 -84.06443 4645 ft 248 kts 265°
2026-05-07 00:43 35.76328 -84.08530 5383 ft 253 kts 291°
2026-05-07 00:43 35.77413 -84.10273 6158 ft 264 kts 316°
2026-05-07 00:43 35.79089 -84.11280 6947 ft 277 kts 343°
2026-05-07 00:43 35.81049 -84.11251 7996 ft 290 kts
2026-05-07 00:44 35.82913 -84.10185 9031 ft 305 kts 33°
2026-05-07 00:44 35.84364 -84.08225 9994 ft 317 kts 56°
2026-05-07 00:44 35.85465 -84.05742 10355 ft 348 kts 62°
2026-05-07 00:44 35.86542 -84.02906 10459 ft 383 kts 64°
2026-05-07 00:45 35.87658 -83.99812 11099 ft 398 kts 64°
2026-05-07 00:45 35.88791 -83.96650 11962 ft 408 kts 64°
2026-05-07 00:45 35.89943 -83.93456 12807 ft 417 kts 64°
2026-05-07 00:45 35.91148 -83.90140 13599 ft 426 kts 63°
2026-05-07 00:46 35.92375 -83.86781 14359 ft 434 kts 63°
2026-05-07 00:46 35.93630 -83.83358 15054 ft 441 kts 63°
2026-05-07 00:46 35.94909 -83.79870 15701 ft 450 kts 62°
2026-05-07 00:46 35.96212 -83.76317 16394 ft 457 kts 62°
2026-05-07 00:47 35.97531 -83.72716 17034 ft 464 kts 62°
2026-05-07 00:47 35.98876 -83.69041 17675 ft 472 kts 61°
2026-05-07 00:47 36.00235 -83.65320 18303 ft 479 kts 61°
2026-05-07 00:47 36.01654 -83.61636 18817 ft 481 kts 56°
2026-05-07 00:48 36.03355 -83.58069 19397 ft 483 kts 52°
2026-05-07 00:48 36.05185 -83.54555 19956 ft 486 kts 51°
2026-05-07 00:48 36.07058 -83.51066 20597 ft 488 kts 50°
2026-05-07 00:48 36.08964 -83.47560 21168 ft 493 kts 50°
2026-05-07 00:49 36.10882 -83.44068 21700 ft 498 kts 50°
2026-05-07 00:49 36.12849 -83.40511 22360 ft 502 kts 50°
2026-05-07 00:49 36.14839 -83.36931 22979 ft 506 kts 50°
2026-05-07 00:49 36.16849 -83.33338 23595 ft 510 kts 50°
2026-05-07 00:50 36.18889 -83.29716 24110 ft 515 kts 50°
2026-05-07 00:50 36.20952 -83.26069 24598 ft 520 kts 50°
2026-05-07 00:50 36.23039 -83.22390 25119 ft 524 kts 50°
2026-05-07 00:50 36.25149 -83.18674 25635 ft 529 kts 50°
2026-05-07 00:51 36.27287 -83.14919 25970 ft 533 kts 50°
2026-05-07 00:51 36.29381 -83.11236 26309 ft 533 kts 50°
2026-05-07 00:51 36.31517 -83.07472 26706 ft 534 kts 50°
2026-05-07 00:51 36.33655 -83.03670 26910 ft 539 kts 53°
2026-05-07 00:52 36.35407 -82.99586 26949 ft 530 kts 65°
2026-05-07 00:52 36.36602 -82.95288 26967 ft 527 kts 72°
2026-05-07 00:52 36.37552 -82.90898 26972 ft 525 kts 75°
2026-05-07 00:52 36.38456 -82.86502 26971 ft 525 kts 74°
2026-05-07 00:53 36.39391 -82.82178 26976 ft 525 kts 73°
2026-05-07 00:53 36.40399 -82.77820 26951 ft 524 kts 72°
2026-05-07 00:53 36.41457 -82.73485 26960 ft 522 kts 71°
2026-05-07 00:53 36.42534 -82.69191 26958 ft 521 kts 71°
2026-05-07 00:54 36.43628 -82.64883 26953 ft 521 kts 71°
2026-05-07 00:54 36.44718 -82.60592 26954 ft 521 kts 71°
2026-05-07 00:54 36.45806 -82.56296 26943 ft 521 kts 71°
2026-05-07 00:54 36.46889 -82.51998 26934 ft 521 kts 71°
2026-05-07 00:55 36.47953 -82.47758 26979 ft 521 kts 71°
2026-05-07 00:55 36.49028 -82.43458 26980 ft 520 kts 71°
2026-05-07 00:55 36.50098 -82.39168 26973 ft 520 kts 71°
2026-05-07 00:55 36.51166 -82.34877 26990 ft 521 kts 71°
2026-05-07 00:56 36.52241 -82.30554 26981 ft 523 kts 71°
2026-05-07 00:56 36.53315 -82.26227 26974 ft 524 kts 71°
2026-05-07 00:56 36.54390 -82.21889 26968 ft 525 kts 71°
2026-05-07 00:56 36.55463 -82.17551 26961 ft 525 kts 71°
2026-05-07 00:57 36.56536 -82.13204 26978 ft 525 kts 71°
2026-05-07 00:57 36.57620 -82.08813 26987 ft 537 kts 71°
2026-05-07 00:57 36.58723 -82.04319 26990 ft 545 kts 71°
2026-05-07 00:57 36.59806 -81.99855 26991 ft 547 kts 71°
2026-05-07 00:58 36.60906 -81.95309 26988 ft 547 kts 71°
2026-05-07 00:58 36.62005 -81.90770 26983 ft 547 kts 71°
2026-05-07 00:58 36.63108 -81.86234 26977 ft 547 kts 71°
2026-05-07 00:58 36.64216 -81.81681 26970 ft 548 kts 71°
2026-05-07 00:59 36.66426 -81.72591 26958 ft 548 kts 71°
2026-05-07 00:59 36.67514 -81.68109 26952 ft 548 kts 71°
2026-05-07 00:59 36.68615 -81.63562 26932 ft 547 kts 71°
2026-05-07 01:00 36.69709 -81.59032 26973 ft 544 kts 71°
2026-05-07 01:00 36.70799 -81.54514 26975 ft 544 kts 71°
2026-05-07 01:00 36.71889 -81.49986 26982 ft 544 kts 72°
2026-05-07 01:00 36.72976 -81.45458 26990 ft 544 kts 72°
2026-05-07 01:01 36.74059 -81.40942 26999 ft 544 kts 72°
2026-05-07 01:01 36.75141 -81.36421 27001 ft 544 kts 72°
2026-05-07 01:01 36.76221 -81.31903 27005 ft 544 kts 72°
2026-05-07 01:01 36.77302 -81.27368 26990 ft 544 kts 72°
2026-05-07 01:02 36.78377 -81.22851 26994 ft 541 kts 72°
2026-05-07 01:02 36.79431 -81.18410 26988 ft 541 kts 72°
2026-05-07 01:02 36.80497 -81.13914 26985 ft 540 kts 72°
2026-05-07 01:02 36.81566 -81.09398 26975 ft 540 kts 72°
2026-05-07 01:03 36.82628 -81.04879 26965 ft 540 kts 72°
2026-05-07 01:03 36.83674 -81.00376 26971 ft 540 kts 72°
2026-05-07 01:03 36.84718 -80.95873 26978 ft 540 kts 72°
2026-05-07 01:03 36.85766 -80.91366 26983 ft 540 kts 72°
2026-05-07 01:04 36.86804 -80.86915 26984 ft 539 kts 72°
2026-05-07 01:04 36.87852 -80.82429 26985 ft 538 kts 72°
2026-05-07 01:04 36.88901 -80.77938 26990 ft 541 kts 72°
2026-05-07 01:04 36.89958 -80.73410 26971 ft 542 kts 72°
2026-05-07 01:05 36.91013 -80.68880 26969 ft 542 kts 72°
2026-05-07 01:05 36.92068 -80.64340 26958 ft 542 kts 72°
2026-05-07 01:05 36.93120 -80.59803 26934 ft 543 kts 72°
2026-05-07 01:05 36.94154 -80.55329 26941 ft 543 kts 72°
2026-05-07 01:06 36.95192 -80.50831 26303 ft 536 kts 72°
2026-05-07 01:06 36.96170 -80.46388 25888 ft 534 kts 73°
2026-05-07 01:06 36.97130 -80.41893 25538 ft 536 kts 73°
2026-05-07 01:06 36.98080 -80.37377 25187 ft 534 kts 73°
2026-05-07 01:07 36.99019 -80.32895 25016 ft 531 kts 73°
2026-05-07 01:07 36.99944 -80.28492 24966 ft 510 kts 73°
2026-05-07 01:07 37.00834 -80.24300 24949 ft 486 kts 73°
2026-05-07 01:07 37.01686 -80.20302 24946 ft 478 kts 73°
2026-05-07 01:08 37.02545 -80.16285 24929 ft 476 kts 73°
2026-05-07 01:08 37.03399 -80.12293 24930 ft 474 kts 73°
2026-05-07 01:08 37.04245 -80.08298 24925 ft 475 kts 73°
2026-05-07 01:08 37.05089 -80.04287 24919 ft 475 kts 73°
2026-05-07 01:09 37.05934 -80.00285 24932 ft 475 kts 73°
2026-05-07 01:09 37.06778 -79.96325 24915 ft 477 kts 73°
2026-05-07 01:09 37.07646 -79.92295 24913 ft 477 kts 73°
2026-05-07 01:09 37.08515 -79.88281 24909 ft 477 kts 73°
2026-05-07 01:10 37.09387 -79.84263 24907 ft 477 kts 73°
2026-05-07 01:10 37.10261 -79.80239 24777 ft 473 kts 72°
2026-05-07 01:10 37.11120 -79.76268 24101 ft 470 kts 72°
2026-05-07 01:10 37.11758 -79.72283 23469 ft 466 kts 85°
2026-05-07 01:11 37.11639 -79.68309 22770 ft 459 kts 102°
2026-05-07 01:11 37.10725 -79.64534 22082 ft 446 kts 120°
2026-05-07 01:11 37.09107 -79.61304 21418 ft 429 kts 137°
2026-05-07 01:11 37.06979 -79.58830 20997 ft 411 kts 151°
2026-05-07 01:12 37.04667 -79.56744 20642 ft 408 kts 154°
2026-05-07 01:12 37.02359 -79.54748 20282 ft 406 kts 154°
2026-05-07 01:12 37.00065 -79.52698 19986 ft 404 kts 152°
2026-05-07 01:12 36.97812 -79.50594 19930 ft 404 kts 150°
2026-05-07 01:13 36.95585 -79.48445 19921 ft 404 kts 150°
2026-05-07 01:13 36.93374 -79.46267 19918 ft 405 kts 149°
2026-05-07 01:13 36.91161 -79.44062 19916 ft 405 kts 149°
2026-05-07 01:13 36.88963 -79.41862 19906 ft 405 kts 149°
2026-05-07 01:14 36.86766 -79.39658 19911 ft 405 kts 148°
2026-05-07 01:14 36.84592 -79.37480 19713 ft 406 kts 148°
2026-05-07 01:14 36.82393 -79.35275 19414 ft 403 kts 148°
2026-05-07 01:14 36.80214 -79.33092 19131 ft 401 kts 148°
2026-05-07 01:15 36.78042 -79.30920 18830 ft 397 kts 148°
2026-05-07 01:15 36.75926 -79.28798 18541 ft 386 kts 149°
2026-05-07 01:15 36.73839 -79.26713 18254 ft 382 kts 149°
2026-05-07 01:15 36.71793 -79.24675 17914 ft 384 kts 149°
2026-05-07 01:16 36.69690 -79.22586 17477 ft 378 kts 148°
2026-05-07 01:16 36.67667 -79.20572 17009 ft 374 kts 148°
2026-05-07 01:16 36.65643 -79.18558 16513 ft 370 kts 148°
2026-05-07 01:16 36.63646 -79.16572 16014 ft 365 kts 148°
2026-05-07 01:17 36.61669 -79.14607 15489 ft 361 kts 148°
2026-05-07 01:17 36.59717 -79.12669 14968 ft 356 kts 148°
2026-05-07 01:17 36.57788 -79.10755 14452 ft 351 kts 147°
2026-05-07 01:17 36.55913 -79.08896 13956 ft 347 kts 147°
2026-05-07 01:18 36.54037 -79.07037 13432 ft 342 kts 147°
2026-05-07 01:18 36.52187 -79.05206 12909 ft 338 kts 147°
2026-05-07 01:18 36.50357 -79.03395 12457 ft 333 kts 147°
2026-05-07 01:18 36.48558 -79.01615 12183 ft 323 kts 147°
2026-05-07 01:19 36.46811 -78.99886 12050 ft 319 kts 147°
2026-05-07 01:19 36.45069 -78.98175 11960 ft 318 kts 147°
2026-05-07 01:19 36.43331 -78.96476 11857 ft 318 kts 147°
2026-05-07 01:19 36.41595 -78.94777 11738 ft 317 kts 147°
2026-05-07 01:20 36.39865 -78.93081 11545 ft 317 kts 147°
2026-05-07 01:20 36.38197 -78.91279 11127 ft 318 kts 142°
2026-05-07 01:20 36.36634 -78.89365 10560 ft 322 kts 140°
2026-05-07 01:20 36.35068 -78.87368 10083 ft 323 kts 139°
2026-05-07 01:21 36.33508 -78.85358 9493 ft 320 kts 139°
2026-05-07 01:21 36.32509 -78.84066 9239 ft 311 kts 139°
2026-05-07 01:21 36.31025 -78.82153 9054 ft 298 kts 139°
2026-05-07 01:21 36.29650 -78.80396 8947 ft 271 kts 140°
2026-05-07 01:22 36.27979 -78.78281 8873 ft 245 kts 141°
2026-05-07 01:22 36.27170 -78.77260 8652 ft 248 kts 141°
2026-05-07 01:22 36.25967 -78.75746 8233 ft 246 kts 141°
2026-05-07 01:22 36.24769 -78.74237 7797 ft 244 kts 140°
2026-05-07 01:23 36.23597 -78.72757 7374 ft 242 kts 140°
2026-05-07 01:23 36.22420 -78.71270 7017 ft 241 kts 140°
2026-05-07 01:23 36.21249 -78.69790 6654 ft 240 kts 140°
2026-05-07 01:23 36.20077 -78.68308 6296 ft 241 kts 140°
2026-05-07 01:24 36.18909 -78.66827 6051 ft 240 kts 140°
2026-05-07 01:24 36.17737 -78.65333 6011 ft 241 kts 140°
2026-05-07 01:24 36.16499 -78.63982 5888 ft 231 kts 149°
2026-05-07 01:24 36.15219 -78.62777 5137 ft 231 kts 150°
2026-05-07 01:25 36.13988 -78.61625 4682 ft 218 kts 150°
2026-05-07 01:25 36.12773 -78.60557 4144 ft 207 kts 161°
2026-05-07 01:25 36.11448 -78.59954 3819 ft 201 kts 170°
2026-05-07 01:25 36.10125 -78.59446 3461 ft 195 kts 170°
2026-05-07 01:26 36.08865 -78.59019 3070 ft 180 kts 181°
2026-05-07 01:26 36.07650 -78.59066 3036 ft 174 kts 191°
2026-05-07 01:26 36.06436 -78.59189 3024 ft 175 kts 190°
2026-05-07 01:26 36.05237 -78.59318 3022 ft 174 kts 190°
2026-05-07 01:27 36.04114 -78.59730 2984 ft 165 kts 220°
2026-05-07 01:27 36.03272 -78.60704 3055 ft 167 kts 225°
2026-05-07 01:27 36.02417 -78.61679 3010 ft 166 kts 225°
2026-05-07 01:27 36.01584 -78.62671 3030 ft 166 kts 227°
2026-05-07 01:28 36.00757 -78.63688 3008 ft 168 kts 227°
2026-05-07 01:28 35.99947 -78.64684 3019 ft 166 kts 227°
2026-05-07 01:28 35.99133 -78.65690 3023 ft 166 kts 227°
2026-05-07 01:28 35.98311 -78.66708 2829 ft 167 kts 226°
2026-05-07 01:29 35.97492 -78.67724 2623 ft 167 kts 226°
2026-05-07 01:29 35.96706 -78.68698 2384 ft 151 kts 226°
2026-05-07 01:29 35.95980 -78.69601 2192 ft 147 kts 226°
2026-05-07 01:29 35.95263 -78.70493 1999 ft 146 kts 226°
2026-05-07 01:30 35.94551 -78.71379 1821 ft 146 kts 225°
2026-05-07 01:30 35.93837 -78.72267 1643 ft 146 kts 225°
2026-05-07 01:30 35.93120 -78.73158 1428 ft 147 kts 225°
2026-05-07 01:30 35.92395 -78.74060 1249 ft 149 kts 225°
2026-05-07 01:31 35.91652 -78.74983 1061 ft 153 kts 225°
2026-05-07 01:31 35.90896 -78.75924 936 ft 167 kts 225°
2026-05-07 01:31 35.90011 -78.77034 1654 ft 184 kts 225°
2026-05-07 01:31 35.89256 -78.78105 2966 ft 157 kts 242°
2026-05-07 01:32 35.88864 -78.79446 3480 ft 175 kts 251°
2026-05-07 01:32 35.88519 -78.80887 3973 ft 178 kts 250°
2026-05-07 01:32 35.88138 -78.82349 4012 ft 176 kts 249°
2026-05-07 01:32 35.87756 -78.83761 4018 ft 175 kts 249°
2026-05-07 01:33 35.87374 -78.85186 4022 ft 175 kts 250°
2026-05-07 01:33 35.87231 -78.86665 3987 ft 179 kts 276°
2026-05-07 01:33 35.87857 -78.88028 4030 ft 191 kts 306°
2026-05-07 01:33 35.88860 -78.89121 4052 ft 193 kts 310°
2026-05-07 01:34 35.89892 -78.90189 4022 ft 194 kts 310°
2026-05-07 01:34 35.90929 -78.91244 4011 ft 194 kts 313°
2026-05-07 01:34 35.92228 -78.91851 3996 ft 211 kts 346°
2026-05-07 01:34 35.93707 -78.91476 4023 ft 226 kts 20°
2026-05-07 01:35 35.94948 -78.90252 4059 ft 231 kts 39°
2026-05-07 01:35 35.96084 -78.88831 4017 ft 232 kts 40°
2026-05-07 01:35 35.97198 -78.87425 4031 ft 233 kts 40°
2026-05-07 01:35 35.98318 -78.86019 3826 ft 227 kts 40°
2026-05-07 01:36 35.99433 -78.84630 3408 ft 228 kts 39°
2026-05-07 01:36 36.00544 -78.83241 3080 ft 226 kts 41°
2026-05-07 01:36 36.01655 -78.81899 3005 ft 223 kts 40°
2026-05-07 01:36 36.02769 -78.80564 3031 ft 223 kts 39°
2026-05-07 01:37 36.03869 -78.79210 3008 ft 222 kts 40°
2026-05-07 01:37 36.04961 -78.77892 3010 ft 222 kts 40°
2026-05-07 01:37 36.05960 -78.76447 2978 ft 223 kts 61°
2026-05-07 01:37 36.06285 -78.74606 3015 ft 218 kts 98°
2026-05-07 01:38 36.05828 -78.72897 3030 ft 205 kts 128°
2026-05-07 01:38 36.05071 -78.71414 3034 ft 204 kts 130°
2026-05-07 01:38 36.04282 -78.69975 2986 ft 199 kts 141°
2026-05-07 01:38 36.03189 -78.69124 3031 ft 181 kts 168°
2026-05-07 01:39 36.01984 -78.68637 3010 ft 183 kts 169°
2026-05-07 01:39 36.00767 -78.68161 3010 ft 184 kts 169°
2026-05-07 01:39 35.99555 -78.67700 2996 ft 180 kts 170°
2026-05-07 01:39 35.98354 -78.67446 2566 ft 176 kts 179°
2026-05-07 01:40 35.97171 -78.67623 2148 ft 168 kts 210°
2026-05-07 01:40 35.96394 -78.68644 2085 ft 166 kts 232°
2026-05-07 01:40 35.95698 -78.69762 2008 ft 158 kts 229°
2026-05-07 01:40 35.95016 -78.70743 1946 ft 147 kts 226°
2026-05-07 01:41 35.94331 -78.71662 1797 ft 146 kts 224°
2026-05-07 01:41 35.93611 -78.72541 1578 ft 146 kts 223°
2026-05-07 01:41 35.92887 -78.73436 1379 ft 149 kts 223°
2026-05-07 01:41 35.92159 -78.74366 1193 ft 153 kts 225°
2026-05-07 01:42 35.91402 -78.75311 1081 ft 154 kts 224°
2026-05-07 01:42 35.90626 -78.76288 827 ft 164 kts 222°
2026-05-07 01:42 35.89815 -78.77271 581 ft 165 kts 223°
2026-05-07 01:42 35.89032 -78.78240 401 ft 146 kts 224°
2026-05-07 01:43 35.88430 -78.78979 398 ft 88 kts 225°
2026-05-07 01:43 35.88128 -78.79353 394 ft 43 kts 225°
2026-05-07 01:43 35.87977 -78.79484 400 ft 13 kts 187°
2026-05-07 01:43 35.87921 -78.79441 399 ft 5 kts 115°
2026-05-07 01:44 35.87925 -78.79419 397 ft 4 kts 71°
2026-05-07 01:44 35.87948 -78.79387 394 ft 5 kts 46°
2026-05-07 01:44 35.87968 -78.79361 396 ft 4 kts 46°
2026-05-07 01:44 35.87985 -78.79340 398 ft 3 kts 46°
2026-05-07 01:45 35.88034 -78.79279 395 ft 16 kts 44°
2026-05-07 01:45 35.88119 -78.79177 399 ft 16 kts 44°
2026-05-07 01:45 35.88179 -78.79101 393 ft 7 kts 51°
2026-05-07 01:45 35.88185 -78.79080 396 ft 1 kts 87°
2026-05-07 01:46 35.88181 -78.79068 398 ft 4 kts 110°
2026-05-07 01:46 35.88181 -78.78998 396 ft 12 kts 66°
2026-05-07 01:46 35.88236 -78.78921 397 ft 12 kts 46°
2026-05-07 01:46 35.88292 -78.78851 396 ft 13 kts 45°
2026-05-07 01:47 35.88374 -78.78751 397 ft 20 kts 44°
2026-05-07 01:47 35.88490 -78.78607 396 ft 27 kts 45°
2026-05-07 01:47 35.88635 -78.78429 394 ft 32 kts 44°
2026-05-07 01:47 35.88800 -78.78226 396 ft 35 kts 45°
2026-05-07 01:48 35.88974 -78.78007 393 ft 35 kts 45°
2026-05-07 01:48 35.89103 -78.77771 398 ft 32 kts 45°
2026-05-07 01:48 35.89200 -78.77640 399 ft 10 kts 64°
2026-05-07 01:48 35.89185 -78.77592 398 ft 2 kts 153°
2026-05-07 01:49 35.89164 -78.77605 398 ft 6 kts 211°
2026-05-07 01:49 35.89117 -78.77654 394 ft 12 kts 223°
2026-05-07 01:49 35.89053 -78.77729 398 ft 8 kts 220°
2026-05-07 01:49 35.89028 -78.77728 396 ft 4 kts 154°
2026-05-07 01:50 35.89004 -78.77707 396 ft 3 kts 141°
2026-05-07 01:50 35.88998 -78.77699 397 ft 1 kts 136°